Vorticity
6 6 6 6 6 6 6 7 8 9 11 14 17 18 18 15 10 9 11 17 16 13 11 12 8 1 -3 -0 10 17 20 15 8 3 2 3 4 8 13 13 18 23 26 26 24 22 23 26 30 29 26 22 19 18 18 21 20 20 22 26 27 27 27 27 25 23 19 15 11
5 5 6 6 6 6 6 6 7 8 10 12 14 17 19 19 16 13 11 13 12 11 11 13 10 5 -0 -2 5 12 17 18 12 6 3 4 3 6 10 13 16 20 22 22 24 24 21 19 18 16 14 15 14 12 10 12 14 17 19 19 20 21 22 23 22 22 20 19 17
5 5 5 5 6 6 6 6 6 6 8 9 11 14 17 20 19 17 15 13 12 11 11 13 10 7 3 1 4 9 14 18 15 10 6 4 3 3 5 9 12 13 14 16 25 35 38 22 14 9 8 10 10 7 5 3 4 6 8 8 8 9 11 14 16 18 21 22 21
5 5 5 5 6 6 6 6 6 6 6 6 8 10 13 16 19 20 19 17 15 14 14 14 11 8 6 5 6 9 13 14 16 14 10 6 4 2 2 2 4 6 9 11 13 30 45 45 21 7 1 0 2 3 2 0 2 2 2 1 1 2 3 6 7 10 13 15 16
5 5 5 5 5 6 6 6 6 6 6 6 6 7 9 12 15 18 20 20 20 20 19 18 15 12 9 7 6 10 13 14 14 14 13 10 6 3 1 1 1 2 4 7 6 6 16 47 50 31 8 0 -3 -4 -3 -2 -2 1 4 7 4 3 2 3 4 4 5 6 8
4 4 5 5 5 6 6 6 7 6 6 5 5 6 6 8 11 14 17 19 20 20 20 20 20 17 14 10 7 9 12 14 10 11 13 14 11 7 3 1 0 -0 -0 1 4 4 3 0 7 22 33 28 18 13 9 4 4 9 15 18 12 9 7 5 5 5 6 5 5
4 4 4 5 5 6 6 6 6 6 6 6 6 6 6 6 7 10 12 14 15 16 17 18 20 21 21 18 12 9 10 14 8 6 9 13 14 12 8 3 1 -0 -2 -3 -1 0 1 -2 -2 4 13 17 18 19 20 20 18 15 14 16 17 16 14 11 11 11 10 10 10
4 4 4 4 5 5 6 6 6 6 6 7 7 6 6 6 6 7 8 10 11 12 12 13 16 20 25 28 24 15 8 10 6 4 5 10 13 14 13 8 3 0 -1 -0 1 1 1 -2 -5 -5 -4 -3 -2 0 5 10 15 16 16 19 16 15 15 15 15 14 14 14 13
4 4 4 4 4 5 5 5 6 6 6 7 7 7 7 6 6 6 7 8 9 10 10 11 13 18 24 31 32 24 12 5 4 5 6 10 13 16 16 14 9 4 0 0 5 7 8 6 3 0 -2 -4 -3 -2 -2 -0 7 13 16 16 13 12 12 14 13 12 11 10 10
4 4 4 4 4 4 4 4 5 6 6 6 7 7 7 7 7 6 6 7 8 9 10 11 12 16 21 28 32 29 20 8 7 8 11 12 13 16 19 20 17 12 7 4 5 7 8 10 10 8 6 4 5 4 3 3 13 21 24 19 13 11 11 12 10 7 4 4 6
3 3 3 3 3 3 3 4 4 5 5 6 6 7 7 7 7 7 7 6 6 7 9 10 11 14 18 23 28 28 25 17 13 11 11 10 8 12 18 23 22 20 17 13 8 5 5 8 10 12 13 13 13 12 9 7 19 28 31 27 21 18 16 15 8 4 2 6 10
3 3 3 3 3 3 3 3 4 4 4 4 5 6 7 7 7 7 7 6 6 7 7 8 10 12 14 18 22 25 25 23 17 12 8 5 4 6 11 18 21 22 22 19 13 7 4 4 8 10 10 11 12 13 12 9 18 22 25 29 27 25 24 23 15 9 6 10 14
4 4 4 4 4 3 3 3 3 3 3 3 4 4 6 7 7 8 8 7 7 6 7 7 8 9 11 14 18 21 24 25 22 16 9 4 3 3 6 8 13 18 22 23 19 13 8 5 7 8 5 -2 -4 -0 6 13 17 8 2 16 19 20 23 27 23 18 12 10 12
4 4 4 4 4 4 4 3 3 3 2 2 2 3 4 5 7 8 8 8 7 7 6 6 7 7 9 10 13 16 20 24 25 23 18 12 9 6 5 4 6 12 19 24 23 19 14 10 9 8 3 -8 -16 -15 -8 2 8 -4 -14 -2 1 5 10 17 22 23 20 16 14
4 4 4 4 4 4 4 4 4 3 3 2 2 2 3 4 5 7 8 8 8 7 7 6 6 6 7 8 10 12 15 19 22 25 26 23 18 14 10 7 7 10 16 21 23 22 19 16 13 11 7 0 -6 -7 -6 -3 3 -0 -8 -15 -13 -10 -7 -0 9 16 20 20 18
4 4 4 4 4 4 5 5 5 5 4 4 3 2 2 3 4 5 7 8 8 7 7 7 6 6 6 7 8 9 11 14 17 20 23 26 24 22 18 15 14 14 15 18 21 23 22 20 17 15 13 12 9 7 5 4 6 8 3 -16 -22 -23 -20 -12 -2 7 14 18 18
4 3 4 4 4 5 5 6 6 6 6 6 4 4 3 3 3 4 5 7 7 7 7 7 7 6 6 6 6 7 8 10 12 14 17 19 21 22 21 20 18 17 16 15 18 20 22 22 20 18 16 16 16 15 12 8 8 10 7 -6 -17 -21 -19 -12 -4 3 8 13 15
4 3 3 4 4 5 6 6 7 7 7 7 6 5 4 4 3 4 4 6 6 7 7 7 7 6 6 6 6 6 6 7 8 10 11 13 15 16 17 17 16 15 14 13 14 17 19 21 21 20 18 17 18 18 17 15 13 11 10 7 2 -1 -2 -0 3 6 7 8 10
4 3 3 4 4 5 6 6 7 7 7 7 6 6 6 5 4 4 5 5 6 6 6 7 7 6 6 6 6 6 6 6 7 7 8 9 10 12 13 13 13 13 13 13 12 13 15 18 20 20 20 19 20 20 20 20 16 13 11 10 10 9 9 8 9 8 7 6 7
4 3 3 3 4 5 6 6 7 7 7 7 6 6 6 6 6 6 6 6 6 6 6 6 6 6 6 6 6 6 6 6 6 6 6 7 8 9 10 11 11 12 12 12 12 12 13 14 16 18 19 19 20 20 21 20 17 14 11 9 9 9 9 9 9 8 6 5 5
4 3 3 3 4 5 6 6 7 7 7 6 6 6 6 6 6 6 7 7 7 6 6 6 6 6 6 6 6 6 6 6 6 6 6 6 6 7 8 8 10 10 11 11 12 12 12 12 13 14 16 16 17 18 18 19 19 17 15 13 11 10 8 8 7 6 5 4 4
4 3 3 3 4 5 6 6 7 7 6 6 6 6 6 6 7 7 8 8 8 7 6 6 6 6 6 6 6 6 6 6 5 5 6 6 6 6 6 7 8 9 10 10 11 12 12 12 12 13 13 13 14 14 15 16 18 20 21 21 19 16 13 10 9 8 7 6 5
4 4 4 4 4 5 6 7 7 7 6 6 6 6 6 6 7 8 9 9 8 8 8 7 6 6 6 6 6 6 6 6 5 5 5 5 5 5 5 6 6 7 8 8 9 10 11 11 12 12 13 13 13 13 12 12 13 15 18 21 24 24 22 19 16 13 12 10 9
4 4 4 4 5 6 6 7 7 7 6 5 5 5 6 6 8 8 9 9 9 9 9 8 7 7 6 6 6 6 6 6 6 6 5 5 5 5 5 5 5 6 6 7 7 8 8 9 10 11 12 13 13 13 12 12 11 11 11 13 17 21 24 26 24 22 19 16 13
5 4 4 5 5 6 6 7 7 6 6 5 5 5 6 6 8 9 10 10 9 9 9 9 8 7 7 7 7 7 7 7 7 7 6 6 6 5 5 5 5 5 6 6 6 6 7 7 8 8 9 10 12 13 13 13 13 12 11 10 11 12 15 19 22 24 24 22 18
5 5 5 5 6 6 7 7 7 6 6 5 5 5 5 6 8 9 10 10 10 10 9 9 9 8 8 8 7 7 7 7 7 7 7 7 7 6 6 5 5 5 5 6 6 6 6 6 7 7 7 8 9 10 11 13 13 13 13 13 12 11 11 11 13 17 20 24 24
5 5 5 5 6 6 7 7 7 7 6 5 5 5 5 6 8 9 10 10 10 10 10 9 9 9 9 9 8 8 7 7 7 7 7 7 7 7 6 6 6 6 6 6 6 6 6 6 6 6 6 6 6 7 8 9 11 12 13 14 14 14 13 12 12 12 14 17 24
5 5 5 5 6 7 7 7 7 7 6 5 5 5 5 6 7 8 10 10 10 10 10 10 10 10 10 9 9 8 8 7 7 7 7 7 7 7 6 6 6 6 6 6 6 6 6 6 6 6 7 7 6 6 6 7 8 9 10 11 12 13 14 14 14 14 13 13 16
5 5 5 5 6 6 7 7 7 6 6 5 5 5 5 6 7 8 9 10 10 10 11 11 12 11 10 10 9 9 8 8 7 7 7 7 7 6 6 6 6 5 5 5 6 6 6 6 6 7 7 7 7 7 7 6 7 7 8 9 10 10 11 12 14 15 16 15 13
5 5 5 6 6 6 7 7 6 6 5 5 5 5 5 6 6 7 8 9 10 11 12 12 12 11 10 10 9 9 8 8 8 7 7 6 6 6 6 6 5 5 5 5 5 5 6 6 6 6 7 7 7 7 7 7 7 7 7 7 8 9 10 10 12 13 15 16 15
5 5 5 6 6 6 7 6 6 6 5 5 5 5 5 5 6 6 7 8 10 11 11 11 11 10 10 10 9 9 8 8 8 7 7 6 6 6 6 6 6 5 5 4 4 4 5 5 6 6 6 7 7 8 7 7 7 7 7 7 7 8 8 9 10 12 13 15 16
4 5 5 6 6 6 6 6 6 6 5 5 4 4 5 5 5 6 7 8 9 10 10 10 11 11 10 10 9 9 8 8 8 7 7 6 6 6 6 6 5 5 5 4 4 4 4 5 5 5 6 6 7 8 8 8 8 7 7 7 7 7 8 8 9 11 12 14 15
4 4 5 6 6 6 6 6 6 6 5 5 4 4 4 5 5 6 6 7 7 8 9 10 11 11 11 10 10 9 9 8 8 7 7 7 6 6 6 6 6 5 5 5 4 4 4 4 5 5 5 5 6 7 8 8 8 8 8 7 7 7 7 8 8 10 11 12 14
4 4 5 6 6 6 7 7 6 6 5 5 4 4 4 5 5 6 6 7 7 7 8 9 10 11 11 11 10 10 9 8 8 7 7 7 7 6 6 6 6 5 5 5 5 4 4 4 5 5 5 5 5 6 6 7 8 8 8 8 8 7 7 7 8 9 9 10 11
5 5 6 6 6 6 7 7 6 6 6 5 5 5 4 4 5 5 6 7 7 7 7 8 9 10 10 10 10 10 9 8 8 8 7 7 7 7 6 6 6 6 6 5 5 5 5 4 5 5 5 5 5 5 5 6 7 8 8 9 8 8 8 8 8 8 9 9 10
6 6 6 6 7 7 7 7 6 6 6 6 5 5 5 5 5 6 6 7 7 7 7 7 7 8 8 9 9 9 9 9 8 8 8 7 7 7 7 6 6 6 6 6 6 5 5 5 5 5 5 5 6 6 6 5 6 6 7 8 9 8 8 8 8 8 9 9 10
8 8 7 7 7 7 7 7 7 7 6 6 6 6 6 6 6 6 6 7 7 8 7 7 6 6 7 8 8 8 8 8 8 8 8 7 7 7 7 6 6 6 6 6 6 6 6 6 5 5 5 5 6 6 6 6 5 6 6 7 8 8 9 8 8 8 8 9 10
8 8 8 8 8 8 8 7 7 7 7 7 6 6 6 6 6 6 7 7 8 8 8 8 7 6 6 6 7 7 7 7 7 7 7 7 7 7 7 7 7 6 6 6 6 6 6 6 6 6 6 6 6 6 6 6 6 6 6 6 7 8 8 8 8 8 9 9 9
8 8 8 8 8 8 8 8 8 8 7 7 7 7 7 7 7 7 7 8 8 8 8 8 7 7 6 6 6 6 6 6 6 6 6 6 6 7 7 7 7 7 7 7 7 7 7 6 6 6 6 6 6 6 6 6 6 6 6 6 6 7 8 8 8 9 9 9 9
8 8 9 9 9 9 9 9 9 8 8 8 8 8 8 8 8 8 8 8 9 9 9 8 8 8 7 6 6 6 6 5 5 4 4 5 5 6 6 6 7 7 7 7 7 7 7 7 7 7 7 7 7 7 7 6 6 7 7 7 7 7 7 8 8 8 9 9 9
8 9 9 9 9 9 9 9 10 9 9 9 9 9 9 8 9 9 9 9 9 9 9 9 9 8 8 8 7 7 6 6 5 5 4 4 4 4 5 6 6 6 7 7 7 7 8 8 8 8 8 7 7 7 7 7 7 7 8 8 8 7 7 7 8 8 9 9 9
Height
3010 3008 3006 3004 3003 3001 2999 2997 2995 2993 2991 2989 2987 2985 2983 2982 2980 2978 2977 2975 2973 2971 2969 2968 2966 2964 2963 2961 2959 2958 2957 2955 2953 2951 2949 2947 2945 2944 2942 2941 2939 2937 2935 2934 2933 2933 2932 2932 2931 2932 2932 2933 2933 2934 2935 2936 2938 2939 2939 2941 2942 2943 2944 2946 2949 2951 2954 2956 2958
3010 3009 3007 3005 3003 3001 2999 2997 2995 2993 2991 2989 2988 2986 2984 2982 2980 2979 2977 2975 2974 2972 2970 2969 2967 2965 2964 2962 2960 2959 2957 2955 2954 2952 2950 2949 2947 2946 2944 2944 2941 2940 2938 2937 2936 2935 2935 2934 2934 2934 2935 2936 2936 2936 2936 2937 2939 2940 2941 2942 2944 2945 2947 2949 2951 2954 2956 2958 2960
3010 3009 3007 3005 3003 3002 3000 2998 2996 2994 2992 2990 2989 2987 2985 2983 2981 2979 2977 2976 2974 2973 2971 2969 2968 2966 2964 2963 2961 2959 2958 2956 2955 2953 2952 2950 2949 2947 2946 2945 2944 2942 2940 2939 2937 2937 2937 2937 2936 2936 2937 2938 2938 2938 2938 2939 2940 2941 2942 2944 2945 2948 2950 2952 2954 2955 2957 2959 2961
3010 3009 3007 3005 3004 3002 3000 2998 2996 2994 2993 2991 2989 2987 2985 2984 2982 2980 2978 2976 2975 2973 2972 2970 2968 2967 2965 2963 2962 2960 2958 2957 2956 2954 2953 2952 2950 2949 2948 2947 2945 2944 2943 2942 2940 2939 2938 2938 2938 2938 2939 2939 2940 2940 2941 2941 2942 2943 2944 2945 2947 2949 2951 2953 2955 2956 2958 2959 2961
3010 3009 3007 3005 3004 3002 3000 2999 2997 2995 2994 2992 2990 2988 2986 2984 2983 2981 2979 2977 2975 2974 2972 2970 2969 2967 2966 2964 2962 2961 2959 2957 2956 2955 2954 2953 2952 2951 2950 2949 2947 2946 2945 2945 2944 2943 2941 2940 2939 2939 2939 2941 2942 2943 2944 2944 2945 2945 2946 2947 2949 2950 2952 2954 2956 2957 2959 2960 2961
3010 3009 3007 3006 3004 3002 3001 2999 2997 2996 2994 2992 2990 2989 2987 2985 2983 2981 2980 2978 2976 2974 2973 2971 2970 2968 2966 2964 2963 2961 2960 2958 2957 2956 2955 2954 2953 2952 2951 2950 2949 2949 2948 2947 2946 2946 2945 2943 2942 2941 2940 2940 2942 2944 2945 2946 2946 2947 2948 2949 2950 2951 2953 2954 2956 2958 2960 2961 2962
3010 3009 3007 3006 3004 3003 3001 2999 2998 2996 2994 2993 2991 2989 2988 2986 2984 2982 2980 2979 2977 2975 2974 2972 2970 2968 2966 2965 2963 2962 2961 2959 2958 2957 2956 2955 2954 2953 2952 2952 2951 2950 2949 2949 2948 2948 2948 2946 2946 2945 2945 2945 2945 2945 2946 2946 2947 2948 2949 2949 2950 2952 2954 2955 2957 2959 2960 2961 2962
3010 3009 3008 3006 3004 3003 3002 3000 2998 2997 2995 2993 2992 2990 2988 2986 2984 2983 2981 2979 2978 2976 2974 2973 2971 2969 2967 2965 2964 2962 2961 2960 2959 2958 2957 2956 2955 2954 2953 2953 2952 2952 2951 2950 2950 2949 2949 2949 2949 2949 2949 2949 2949 2949 2949 2949 2949 2950 2950 2951 2951 2952 2954 2956 2957 2958 2959 2961 2962
3010 3009 3008 3006 3005 3004 3002 3000 2999 2997 2995 2994 2992 2990 2989 2987 2985 2984 2982 2980 2978 2977 2975 2973 2971 2969 2967 2965 2964 2963 2962 2961 2960 2959 2958 2957 2956 2955 2954 2954 2953 2953 2953 2952 2952 2951 2951 2950 2950 2950 2950 2950 2950 2950 2950 2951 2951 2952 2952 2952 2953 2953 2954 2955 2956 2958 2959 2960 2961
3010 3009 3008 3007 3005 3004 3002 3001 2999 2998 2996 2994 2993 2991 2989 2988 2986 2984 2983 2981 2979 2977 2975 2974 2972 2970 2968 2966 2964 2963 2962 2961 2960 2959 2959 2958 2957 2957 2956 2955 2954 2954 2954 2954 2954 2953 2953 2952 2952 2951 2951 2951 2951 2951 2952 2952 2952 2952 2953 2953 2954 2954 2955 2956 2957 2958 2959 2960 2961
3010 3009 3008 3007 3005 3004 3003 3001 3000 2998 2997 2995 2993 2992 2990 2988 2987 2985 2983 2981 2979 2978 2976 2974 2973 2971 2969 2967 2965 2964 2963 2962 2961 2960 2959 2959 2958 2957 2957 2956 2955 2955 2955 2954 2955 2954 2954 2954 2954 2953 2952 2952 2953 2953 2953 2953 2954 2954 2954 2954 2955 2955 2956 2956 2957 2958 2959 2959 2961
3010 3009 3008 3007 3006 3004 3003 3002 3000 2999 2997 2995 2994 2992 2991 2989 2987 2986 2984 2982 2980 2979 2977 2975 2974 2972 2970 2968 2966 2965 2964 2963 2962 2961 2960 2959 2958 2958 2957 2957 2956 2956 2955 2955 2955 2955 2955 2955 2955 2954 2954 2954 2954 2954 2954 2954 2955 2955 2955 2955 2955 2956 2957 2957 2957 2958 2958 2959 2959
3010 3009 3008 3007 3006 3005 3003 3002 3001 2999 2998 2996 2994 2993 2991 2990 2988 2987 2985 2983 2981 2979 2978 2976 2974 2973 2971 2969 2967 2965 2964 2963 2962 2961 2961 2960 2959 2958 2958 2957 2957 2957 2956 2956 2956 2955 2955 2955 2955 2955 2955 2955 2954 2955 2955 2955 2955 2955 2955 2955 2956 2957 2957 2958 2958 2958 2958 2959 2959
3010 3009 3008 3007 3006 3005 3004 3002 3001 3000 2998 2997 2995 2994 2992 2990 2989 2987 2986 2984 2982 2980 2979 2977 2975 2973 2972 2970 2968 2967 2965 2964 2963 2962 2961 2961 2960 2959 2958 2958 2957 2957 2957 2957 2956 2956 2956 2956 2956 2956 2955 2955 2955 2955 2956 2956 2955 2955 2955 2956 2956 2957 2957 2958 2958 2959 2959 2958 2958
3010 3009 3008 3007 3006 3005 3004 3003 3001 3000 2999 2997 2995 2994 2992 2991 2989 2988 2986 2985 2983 2981 2980 2978 2976 2974 2973 2971 2969 2968 2966 2965 2964 2963 2962 2961 2961 2960 2959 2958 2958 2957 2957 2957 2957 2957 2956 2956 2956 2956 2956 2956 2956 2956 2956 2956 2956 2955 2955 2956 2956 2956 2957 2958 2958 2959 2959 2959 2959
3009 3009 3008 3007 3006 3005 3004 3003 3002 3000 2999 2998 2996 2994 2993 2991 2990 2988 2987 2985 2984 2982 2981 2979 2977 2975 2974 2972 2971 2969 2968 2966 2965 2964 2963 2962 2961 2960 2960 2959 2958 2958 2957 2957 2958 2958 2957 2957 2957 2957 2957 2957 2956 2956 2956 2957 2957 2956 2956 2956 2957 2957 2958 2958 2958 2959 2959 2959 2959
3009 3009 3008 3007 3006 3005 3004 3003 3002 3001 2999 2998 2996 2995 2993 2992 2990 2989 2987 2986 2984 2983 2981 2980 2978 2977 2975 2974 2972 2971 2969 2968 2966 2965 2964 2963 2962 2961 2960 2959 2959 2958 2958 2958 2958 2958 2958 2958 2958 2957 2957 2957 2957 2957 2957 2957 2957 2957 2956 2957 2957 2957 2958 2958 2958 2958 2958 2958 2958
3009 3008 3007 3007 3006 3005 3004 3003 3002 3000 2999 2998 2997 2995 2994 2992 2991 2989 2988 2986 2985 2983 2982 2980 2979 2978 2976 2975 2973 2972 2970 2969 2968 2966 2965 2964 2963 2962 2961 2960 2959 2959 2959 2958 2958 2958 2958 2958 2958 2958 2958 2957 2957 2957 2957 2957 2957 2956 2956 2956 2956 2956 2957 2958 2958 2957 2957 2957 2957
3008 3008 3007 3006 3005 3004 3004 3003 3002 3000 2999 2998 2997 2995 2994 2993 2991 2990 2988 2987 2985 2984 2982 2981 2979 2978 2977 2975 2974 2973 2972 2970 2969 2968 2966 2965 2964 2963 2962 2961 2960 2959 2959 2959 2959 2958 2958 2958 2958 2958 2958 2957 2957 2957 2957 2957 2956 2956 2956 2955 2955 2955 2956 2956 2956 2956 2956 2956 2956
3008 3007 3007 3006 3005 3004 3003 3002 3001 3000 2999 2998 2997 2996 2994 2993 2992 2990 2989 2987 2986 2984 2983 2981 2980 2979 2978 2976 2975 2974 2973 2971 2970 2969 2968 2966 2965 2964 2963 2962 2961 2960 2960 2959 2959 2959 2959 2958 2958 2958 2957 2957 2957 2957 2956 2956 2956 2956 2955 2955 2955 2955 2955 2955 2955 2956 2956 2956 2955
3007 3007 3006 3005 3005 3004 3003 3002 3001 3000 2999 2998 2997 2996 2994 2994 2992 2991 2989 2988 2987 2985 2984 2982 2981 2979 2978 2977 2976 2974 2973 2972 2971 2970 2969 2968 2966 2965 2964 2964 2963 2962 2961 2960 2960 2960 2959 2959 2959 2958 2958 2957 2957 2957 2956 2956 2956 2956 2955 2955 2955 2955 2955 2955 2955 2955 2956 2955 2955
3007 3006 3005 3005 3004 3004 3003 3002 3001 3000 2999 2998 2997 2996 2995 2994 2992 2991 2990 2989 2987 2986 2984 2983 2981 2980 2979 2978 2976 2975 2974 2973 2972 2970 2969 2969 2967 2966 2966 2965 2964 2963 2963 2962 2961 2961 2960 2960 2959 2959 2959 2958 2958 2957 2957 2956 2956 2956 2956 2955 2955 2955 2955 2955 2955 2955 2955 2955 2955
3006 3005 3005 3004 3004 3003 3002 3001 3000 2999 2999 2998 2997 2996 2995 2994 2993 2991 2990 2989 2988 2986 2985 2984 2982 2981 2979 2978 2977 2976 2975 2974 2972 2971 2970 2969 2968 2967 2966 2966 2965 2964 2964 2963 2963 2962 2961 2961 2960 2960 2959 2959 2959 2958 2957 2957 2956 2956 2956 2956 2956 2956 2955 2955 2955 2955 2955 2955 2955
3005 3005 3004 3004 3003 3002 3002 3001 3000 2999 2999 2998 2997 2996 2995 2994 2993 2992 2990 2989 2988 2987 2985 2984 2983 2981 2980 2979 2978 2977 2975 2974 2973 2972 2971 2970 2969 2968 2967 2966 2966 2965 2964 2964 2964 2963 2962 2962 2961 2961 2960 2960 2959 2959 2958 2958 2957 2957 2956 2956 2956 2956 2956 2955 2955 2955 2955 2955 2955
3004 3004 3004 3003 3002 3002 3001 3000 2999 2999 2998 2997 2997 2996 2995 2994 2993 2992 2991 2989 2988 2987 2986 2984 2983 2982 2981 2979 2978 2977 2976 2975 2974 2973 2972 2971 2970 2969 2968 2967 2966 2965 2965 2964 2964 2963 2963 2962 2962 2961 2961 2960 2960 2959 2959 2958 2958 2957 2957 2956 2956 2956 2956 2956 2955 2955 2955 2955 2955
3004 3004 3003 3002 3002 3001 3000 2999 2999 2998 2998 2997 2996 2995 2995 2994 2993 2992 2991 2989 2989 2987 2986 2985 2984 2982 2981 2980 2979 2978 2977 2976 2974 2974 2973 2972 2971 2970 2969 2968 2967 2966 2965 2964 2964 2964 2963 2963 2962 2962 2961 2961 2960 2960 2959 2959 2958 2958 2957 2956 2956 2956 2956 2956 2956 2955 2955 2955 2955
3003 3003 3002 3002 3001 3000 3000 2999 2998 2998 2997 2996 2996 2995 2994 2994 2993 2992 2991 2990 2989 2988 2986 2985 2984 2983 2982 2980 2979 2978 2977 2976 2975 2974 2973 2972 2971 2970 2969 2969 2968 2967 2966 2965 2964 2964 2963 2963 2962 2962 2961 2961 2960 2960 2959 2959 2959 2958 2957 2957 2956 2956 2956 2956 2956 2955 2955 2955 2955
3003 3002 3002 3001 3000 3000 2999 2999 2998 2997 2996 2996 2995 2994 2994 2993 2992 2991 2990 2990 2989 2988 2987 2985 2984 2983 2982 2981 2979 2978 2977 2976 2975 2974 2974 2973 2972 2971 2970 2969 2968 2967 2966 2965 2965 2964 2963 2963 2962 2962 2962 2961 2961 2960 2960 2959 2959 2958 2958 2957 2956 2956 2955 2955 2955 2955 2955 2955 2954
3002 3001 3001 3000 3000 2999 2999 2998 2997 2996 2996 2995 2995 2994 2993 2993 2992 2991 2990 2989 2989 2988 2987 2986 2984 2983 2982 2981 2980 2979 2978 2977 2975 2974 2974 2973 2972 2971 2970 2969 2968 2968 2967 2966 2965 2964 2964 2963 2962 2962 2961 2961 2961 2960 2960 2959 2959 2959 2958 2957 2956 2956 2955 2955 2955 2955 2955 2954 2954
3001 3001 3000 2999 2999 2999 2998 2997 2997 2996 2995 2995 2994 2993 2993 2992 2991 2991 2990 2989 2989 2988 2987 2985 2984 2983 2982 2981 2980 2979 2978 2977 2976 2975 2974 2973 2972 2971 2970 2969 2969 2968 2967 2966 2965 2965 2964 2963 2963 2962 2961 2961 2960 2960 2960 2959 2959 2959 2958 2958 2957 2956 2955 2955 2954 2954 2954 2954 2954
3000 3000 2999 2999 2998 2998 2997 2997 2996 2995 2994 2994 2993 2993 2992 2991 2991 2990 2989 2989 2988 2987 2986 2985 2984 2983 2982 2981 2980 2979 2978 2977 2976 2975 2974 2973 2972 2971 2971 2970 2969 2968 2967 2966 2965 2965 2964 2964 2963 2962 2961 2961 2960 2960 2959 2959 2959 2958 2958 2957 2957 2956 2956 2955 2954 2954 2954 2954 2954
2999 2999 2999 2998 2998 2997 2996 2996 2995 2994 2994 2993 2993 2992 2991 2991 2990 2989 2989 2989 2988 2987 2986 2985 2984 2983 2982 2981 2980 2979 2978 2977 2976 2975 2974 2973 2972 2971 2971 2970 2969 2968 2967 2967 2966 2965 2964 2964 2963 2962 2962 2961 2960 2960 2959 2959 2958 2958 2958 2957 2957 2956 2956 2955 2954 2954 2954 2954 2954
2999 2998 2998 2997 2997 2996 2995 2995 2994 2994 2993 2993 2992 2991 2991 2990 2989 2989 2988 2988 2987 2987 2986 2985 2984 2983 2982 2981 2980 2979 2978 2977 2976 2975 2974 2973 2972 2971 2971 2970 2969 2968 2967 2967 2966 2965 2964 2964 2963 2962 2961 2961 2960 2959 2959 2959 2958 2958 2957 2957 2956 2956 2955 2955 2954 2954 2953 2953 2953
2998 2997 2997 2996 2996 2995 2994 2994 2994 2993 2992 2992 2991 2990 2990 2989 2989 2988 2988 2987 2987 2986 2985 2985 2984 2983 2982 2981 2980 2979 2978 2977 2976 2975 2974 2973 2972 2971 2970 2969 2969 2968 2967 2967 2966 2965 2964 2963 2963 2962 2961 2961 2960 2959 2959 2958 2958 2957 2957 2956 2956 2955 2955 2954 2954 2953 2953 2952 2952
2997 2996 2996 2995 2995 2994 2994 2993 2993 2992 2991 2991 2990 2990 2989 2989 2988 2987 2987 2986 2986 2985 2985 2984 2983 2983 2982 2981 2980 2979 2978 2977 2976 2975 2974 2973 2972 2971 2970 2969 2969 2968 2967 2966 2965 2965 2964 2963 2962 2962 2961 2960 2959 2959 2959 2958 2957 2957 2956 2955 2955 2954 2954 2954 2953 2953 2952 2952 2951
2996 2995 2995 2994 2994 2993 2993 2992 2992 2991 2990 2990 2989 2989 2988 2988 2987 2987 2986 2985 2985 2984 2984 2983 2983 2982 2981 2980 2979 2979 2978 2976 2975 2974 2974 2973 2972 2971 2970 2969 2968 2968 2967 2966 2965 2964 2964 2963 2962 2961 2960 2960 2959 2959 2958 2957 2957 2956 2956 2955 2954 2954 2954 2953 2953 2952 2952 2951 2951
2994 2994 2994 2993 2993 2992 2991 2991 2990 2990 2989 2989 2989 2988 2987 2987 2986 2986 2985 2984 2984 2984 2983 2982 2982 2981 2980 2980 2979 2978 2977 2976 2975 2974 2973 2972 2971 2970 2969 2969 2968 2967 2966 2965 2965 2964 2963 2962 2962 2961 2960 2959 2959 2958 2958 2957 2956 2955 2955 2954 2954 2953 2953 2952 2952 2951 2951 2950 2950
2993 2993 2992 2992 2991 2991 2990 2990 2989 2989 2989 2988 2987 2987 2986 2986 2985 2984 2984 2984 2983 2982 2982 2981 2981 2980 2980 2979 2978 2978 2977 2976 2975 2974 2973 2972 2971 2970 2969 2969 2968 2967 2966 2965 2964 2963 2963 2962 2961 2960 2960 2959 2958 2958 2957 2956 2956 2955 2954 2954 2953 2953 2952 2951 2951 2950 2950 2949 2949
2992 2992 2991 2991 2990 2990 2989 2989 2988 2988 2987 2987 2986 2986 2985 2984 2984 2984 2983 2982 2982 2981 2981 2980 2980 2979 2979 2978 2977 2977 2976 2975 2974 2974 2973 2972 2971 2970 2969 2968 2967 2966 2965 2964 2964 2963 2962 2961 2960 2960 2959 2958 2958 2957 2956 2956 2955 2954 2954 2953 2953 2952 2951 2951 2950 2949 2949 2949 2948
2991 2990 2990 2989 2989 2989 2988 2988 2987 2986 2986 2985 2985 2984 2984 2983 2983 2982 2982 2981 2981 2980 2979 2979 2979 2978 2977 2977 2976 2976 2975 2974 2974 2973 2972 2971 2970 2969 2969 2968 2967 2966 2965 2964 2963 2962 2961 2961 2960 2959 2958 2958 2957 2956 2956 2955 2954 2954 2953 2952 2952 2951 2950 2950 2949 2949 2948 2948 2947
2989 2989 2989 2988 2988 2987 2987 2986 2986 2985 2984 2984 2984 2983 2983 2982 2982 2981 2980 2980 2979 2979 2978 2978 2977 2977 2976 2975 2975 2974 2974 2973 2972 2972 2971 2970 2969 2969 2968 2967 2966 2965 2964 2963 2962 2962 2961 2960 2959 2958 2958 2957 2956 2955 2955 2954 2954 2953 2952 2952 2951 2950 2950 2949 2949 2948 2947 2947 2946